When you browse on this site, cookies collect data to enhance your experience and personalize the content and advertising you see.
Visit our Privacy Policy to learn more. By continuing to use the site, you agree to this use of cookies and data.
  • In Schweiz
  • Länderverzeichnis
  • Für 7 Tage
  • Wassertemperatur
  • Wetterkarte
  • Widgets
  • user-avatar
    Anmelden

    Stündliche Wetter Norwich

    Heute, 8 Dezember, Sonntag

    Zeit Temperatur Niederschläge Wind Luftdruck Luftfeuchtigkeit
    00:00 +7°C° 0 mm 10 m/S 749 mmHg 87%
    01:00 +7°C° 1 mm 11 m/S 747 mmHg 87%
    02:00 +8°C° 1 mm 11 m/S 746 mmHg 87%
    03:00 +8°C° 1 mm 12 m/S 744 mmHg 87%
    04:00 +9°C° 0.2 mm 12 m/S 744 mmHg 84%
    05:00 +10°C° 0.2 mm 12 m/S 744 mmHg 82%
    06:00 +11°C° 0 mm 11 m/S 743 mmHg 84%
    07:00 +9°C° 0 mm 10 m/S 744 mmHg 83%
    08:00 +8°C° 0 mm 10 m/S 744 mmHg 81%
    09:00 +7°C° 0 mm 9 m/S 744 mmHg 79%
    10:00 +7°C° 0 mm 10 m/S 745 mmHg 75%
    11:00 +7°C° 0 mm 10 m/S 745 mmHg 71%
    12:00 +7°C° 0 mm 10 m/S 745 mmHg 68%
    13:00 +7°C° 0 mm 10 m/S 744 mmHg 67%
    14:00 +6°C° 0 mm 9 m/S 744 mmHg 67%
    15:00 +6°C° 0 mm 9 m/S 743 mmHg 67%
    16:00 +5°C° 0 mm 9 m/S 743 mmHg 68%
    17:00 +5°C° 0 mm 10 m/S 743 mmHg 69%
    18:00 +3°C° 0 mm 10 m/S 742 mmHg 70%
    19:00 +3°C° 0 mm 10 m/S 742 mmHg 71%
    20:00 +3°C° 0 mm 10 m/S 741 mmHg 73%
    21:00 +3°C° 0 mm 10 m/S 741 mmHg 74%
    22:00 +3°C° 0.1 mm 10 m/S 740 mmHg 76%
    23:00 +3°C° 0.1 mm 10 m/S 739 mmHg 78%

    Morgen, 9 Dezember, Montag

    Zeit Temperatur Niederschläge Wind Luftdruck Luftfeuchtigkeit
    00:00 +5°C° 0.1 mm 10 m/S 739 mmHg 80%
    01:00 +3°C° 0.4 mm 9 m/S 738 mmHg 82%
    02:00 +3°C° 0.4 mm 9 m/S 737 mmHg 84%
    03:00 +4°C° 0.4 mm 8 m/S 737 mmHg 85%
    04:00 +3°C° 0.5 mm 9 m/S 738 mmHg 84%
    05:00 +3°C° 0.5 mm 9 m/S 738 mmHg 83%
    06:00 +3°C° 0.5 mm 9 m/S 739 mmHg 82%
    07:00 +5°C° 0.1 mm 10 m/S 741 mmHg 80%
    08:00 +5°C° 0.1 mm 10 m/S 743 mmHg 79%
    09:00 +6°C° 0.1 mm 11 m/S 745 mmHg 78%
    10:00 +5°C° 0.1 mm 12 m/S 748 mmHg 73%
    11:00 +5°C° 0.1 mm 12 m/S 750 mmHg 69%
    12:00 +5°C° 0.1 mm 12 m/S 752 mmHg 65%
    13:00 +4°C° 0 mm 11 m/S 754 mmHg 64%
    14:00 +5°C° 0 mm 10 m/S 755 mmHg 64%
    15:00 +3°C° 0 mm 10 m/S 757 mmHg 64%
    16:00 +2°C° 0 mm 9 m/S 758 mmHg 66%
    17:00 +2°C° 0 mm 8 m/S 760 mmHg 68%
    18:00 +2°C° 0 mm 7 m/S 761 mmHg 70%
    19:00 +2°C° 0 mm 7 m/S 762 mmHg 72%
    20:00 +1°C° 0 mm 6 m/S 763 mmHg 73%
    21:00 +1°C° 0 mm 5 m/S 764 mmHg 74%
    22:00 0°C° 0 mm 5 m/S 764 mmHg 76%
    23:00 0°C° 0 mm 4 m/S 764 mmHg 79%

    übermorgen, 10 Dezember, Dienstag

    Zeit Temperatur Niederschläge Wind Luftdruck Luftfeuchtigkeit
    00:00 -1°C° 0 mm 4 m/S 764 mmHg 81%
    01:00 -1°C° 0 mm 4 m/S 764 mmHg 82%
    02:00 -1°C° 0 mm 4 m/S 764 mmHg 83%
    03:00 -1°C° 0 mm 4 m/S 764 mmHg 84%
    04:00 -1°C° 0 mm 5 m/S 763 mmHg 83%
    05:00 0°C° 0 mm 5 m/S 763 mmHg 83%
    06:00 -1°C° 0 mm 6 m/S 763 mmHg 82%
    07:00 0°C° 0 mm 7 m/S 762 mmHg 80%
    08:00 +1°C° 0 mm 8 m/S 761 mmHg 79%
    09:00 +2°C° 0 mm 9 m/S 760 mmHg 78%
    10:00 +3°C° 0.1 mm 10 m/S 759 mmHg 79%
    11:00 +3°C° 0.1 mm 10 m/S 758 mmHg 81%
    12:00 +4°C° 0.1 mm 11 m/S 757 mmHg 82%
    13:00 +4°C° 0.7 mm 12 m/S 756 mmHg 83%
    14:00 +4°C° 0.7 mm 12 m/S 754 mmHg 84%
    15:00 +5°C° 0.7 mm 12 m/S 752 mmHg 84%
    16:00 +5°C° 0 mm 13 m/S 751 mmHg 85%
    17:00 +7°C° 0 mm 13 m/S 750 mmHg 85%
    18:00 +7°C° 0 mm 13 m/S 749 mmHg 85%
    19:00 +7°C° 0.5 mm 13 m/S 749 mmHg 86%
    20:00 +8°C° 0.5 mm 12 m/S 749 mmHg 87%
    21:00 +8°C° 0.5 mm 12 m/S 749 mmHg 88%
    22:00 +7°C° 1.1 mm 10 m/S 750 mmHg 86%
    23:00 +5°C° 1.1 mm 8 m/S 750 mmHg 84%

    11 Dezember, Mittwoch

    Zeit Temperatur Niederschläge Wind Luftdruck Luftfeuchtigkeit
    00:00 +4°C° 1.1 mm 6 m/S 751 mmHg 82%
    01:00 +4°C° 0 mm 6 m/S 751 mmHg 82%
    02:00 +3°C° 0 mm 6 m/S 752 mmHg 82%
    03:00 +3°C° 0 mm 6 m/S 752 mmHg 83%
    04:00 +2°C° 0 mm 5 m/S 752 mmHg 84%
    05:00 +2°C° 0 mm 5 m/S 752 mmHg 85%
    06:00 +2°C° 0 mm 5 m/S 752 mmHg 86%
    07:00 +1°C° 0 mm 5 m/S 752 mmHg 86%
    08:00 +1°C° 0 mm 5 m/S 752 mmHg 86%
    09:00 +1°C° 0 mm 4 m/S 751 mmHg 85%
    10:00 +2°C° 0 mm 5 m/S 751 mmHg 82%
    11:00 +3°C° 0 mm 6 m/S 750 mmHg 79%
    12:00 +4°C° 0 mm 6 m/S 750 mmHg 77%
    13:00 +4°C° 0 mm 6 m/S 749 mmHg 78%
    14:00 +3°C° 0 mm 5 m/S 748 mmHg 80%
    15:00 +4°C° 0 mm 4 m/S 748 mmHg 82%
    16:00 +4°C° 0 mm 4 m/S 747 mmHg 84%
    17:00 +3°C° 0 mm 3 m/S 747 mmHg 87%
    18:00 +2°C° 0 mm 3 m/S 747 mmHg 89%
    19:00 +2°C° 0 mm 3 m/S 747 mmHg 90%
    20:00 +2°C° 0 mm 3 m/S 747 mmHg 91%
    21:00 +2°C° 0 mm 3 m/S 748 mmHg 92%
    22:00 +1°C° 0 mm 4 m/S 748 mmHg 92%
    23:00 +1°C° 0 mm 4 m/S 748 mmHg 91%

    12 Dezember, Donnerstag

    Zeit Temperatur Niederschläge Wind Luftdruck Luftfeuchtigkeit
    00:00 0°C° 0 mm 5 m/S 748 mmHg 91%
    01:00 0°C° 0 mm 5 m/S 748 mmHg 89%
    02:00 0°C° 0 mm 5 m/S 749 mmHg 88%
    03:00 0°C° 0 mm 5 m/S 749 mmHg 86%
    04:00 -1°C° 0 mm 5 m/S 749 mmHg 86%
    05:00 -1°C° 0 mm 5 m/S 749 mmHg 87%
    06:00 -1°C° 0 mm 5 m/S 749 mmHg 87%
    07:00 -2°C° 0 mm 6 m/S 748 mmHg 86%
    08:00 -1°C° 0 mm 6 m/S 748 mmHg 85%
    09:00 -1°C° 0 mm 6 m/S 748 mmHg 84%
    10:00 0°C° 0 mm 7 m/S 747 mmHg 81%
    11:00 +2°C° 0 mm 7 m/S 745 mmHg 78%
    12:00 +2°C° 0 mm 8 m/S 744 mmHg 74%
    13:00 +3°C° 0.1 mm 9 m/S 742 mmHg 78%
    14:00 +3°C° 0.1 mm 10 m/S 740 mmHg 81%
    15:00 +4°C° 0.1 mm 11 m/S 738 mmHg 85%
    16:00 +4°C° 1.3 mm 12 m/S 736 mmHg 86%
    17:00 +4°C° 1.3 mm 12 m/S 734 mmHg 87%
    18:00 +5°C° 1.3 mm 12 m/S 732 mmHg 88%
    19:00 +6°C° 1.3 mm 10 m/S 730 mmHg 89%
    20:00 +6°C° 1.3 mm 9 m/S 729 mmHg 90%
    21:00 +6°C° 1.3 mm 7 m/S 728 mmHg 92%
    22:00 +5°C° 0.9 mm 8 m/S 727 mmHg 86%
    23:00 +3°C° 0.9 mm 10 m/S 727 mmHg 81%

    13 Dezember, Freitag

    Zeit Temperatur Niederschläge Wind Luftdruck Luftfeuchtigkeit
    00:00 +3°C° 0.9 mm 11 m/S 727 mmHg 75%
    01:00 +2°C° 0 mm 11 m/S 727 mmHg 74%
    02:00 +2°C° 0 mm 11 m/S 727 mmHg 73%
    03:00 +2°C° 0 mm 12 m/S 727 mmHg 72%
    04:00 0°C° 0.1 mm 12 m/S 728 mmHg 70%
    05:00 0°C° 0.1 mm 12 m/S 728 mmHg 69%
    06:00 0°C° 0.1 mm 12 m/S 729 mmHg 68%
    07:00 0°C° 0 mm 12 m/S 729 mmHg 69%
    08:00 +1°C° 0 mm 11 m/S 730 mmHg 71%
    09:00 +1°C° 0 mm 11 m/S 731 mmHg 72%
    10:00 +2°C° 0 mm 11 m/S 731 mmHg 75%
    11:00 +2°C° 0 mm 12 m/S 732 mmHg 77%
    12:00 +3°C° 0 mm 12 m/S 732 mmHg 80%
    13:00 +3°C° 0 mm 12 m/S 733 mmHg 78%
    14:00 +3°C° 0 mm 12 m/S 734 mmHg 76%
    15:00 +3°C° 0 mm 12 m/S 735 mmHg 74%
    16:00 +2°C° 0 mm 11 m/S 736 mmHg 73%
    17:00 +2°C° 0 mm 10 m/S 736 mmHg 72%
    18:00 +1°C° 0 mm 10 m/S 737 mmHg 72%
    19:00 +1°C° 0 mm 9 m/S 738 mmHg 74%
    20:00 +1°C° 0 mm 8 m/S 738 mmHg 76%
    21:00 0°C° 0 mm 8 m/S 739 mmHg 78%
    22:00 0°C° 0 mm 8 m/S 739 mmHg 79%
    23:00 +1°C° 0 mm 8 m/S 738 mmHg 80%
    Mehr zeigen